Location: Oberkirch
(48.5323°N, 8.0787°E)
Time: 16:14:09
(UTC+00:00)

Iridium 4 Rocket - Pass Details

Date: 08 November 2025
Orbit: 579 x 887 km, 86.9° (Epoch: 12 December)

Event Time Altitude Azimuth Distance (km) Brightness Sun altitude
Rises 04:24:33 0° 358° (N) 2,967 6.5 -20.1°
Reaches altitude 10° 04:26:51 10° 360° (N) 2,013 5.6 -19.7°
Maximum altitude 04:31:15 75° 87° (E) 625 3.1 -19.0°
Drops below altitude 10° 04:35:23 10° 172° (S) 1,901 5.7 -18.3°
Sets 04:37:31 0° 174° (S) 2,786 6.6 -17.9°
